Northeast Philadelphia, PA

6:24 PM EST on November 11, 2019 (GMT -0500)
Northeast Philadelphia

Weather History for KPNE - September, 2019

Change the Weather History Date:

Wednesday, September 4, 2019

  Actual Average Record
Temperature  
Mean Temperature 80 °F -  
Max Temperature 93 °F 79 °F 95 °F (2008)
Min Temperature 70 °F 61 °F 48 °F (1997)
Cooling Degree Days 16    
Growing Degree Days 30 (Base 50)    
Moisture  
Dew Point 68 °F    
Average Humidity 72    
Maximum Humidity 87    
Minimum Humidity 45    
Precipitation  
Precipitation 0.00 in - - ()
Sea Level Pressure  
Sea Level Pressure 29.96 in    
Wind  
Wind Speed 6 mph ()    
Max Wind Speed 16 mph    
Max Gust Speed 24 mph    
Visibility 9.7 miles    
Events      
Averages and records for this station are not official NWS values.
T = Trace of Precipitation, MM = Missing Value Source: Averaged Metar Reports

Daily Weather History Graph

Daily Weather History Graph

Search for Another Location

Airport or City:

Astronomy

Sep. 04, 2019 Rise Set
Actual Time 6:30 AM EDT 7:27 PM EDT
Civil Twilight 6:02 AM EDT 7:54 PM EDT
Nautical Twilight 5:29 AM EDT 8:27 PM EDT
Astronomical Twilight 4:55 AM EDT 9:01 PM EDT
Moon 12:29 PM EDT (9/4) 10:59 PM EDT (9/4)
Length of Visible Light 13h 52m
Length of Day
12h 56m
Waxing Crescent, 34% of the Moon is Illuminated
Sep 4
Waxing Crescent
Sep 5
First Quarter
Sep 14
Full
Sep 21
Last Quarter
Sep 28
New

Hourly Weather History & Observations

Time (EDT) Temp. Heat Index Dew Point Humidity Pressure Visibility Wind Dir Wind Speed Gust Speed Precip Events Conditions
12:54 AM 70.0 °F - 63.0 °F 78% 30.04 in 10.0 mi SSE 3.5 mph - N/A   Clear
1:54 AM 70.0 °F - 64.9 °F 84% 30.02 in 10.0 mi SSE 3.5 mph - N/A   Clear
2:13 AM 70.0 °F - 64.9 °F 84% 30.02 in 10.0 mi Calm Calm - N/A   Scattered Clouds
2:46 AM 70.0 °F - 66.0 °F 87% 30.00 in 9.0 mi SSW 5.8 mph - N/A   Overcast
2:54 AM 70.0 °F - 66.0 °F 87% 30.00 in 10.0 mi Variable 3.5 mph - N/A   Overcast
3:54 AM 71.1 °F - 66.0 °F 84% 29.99 in 10.0 mi SSW 4.6 mph - N/A   Overcast
4:43 AM 71.1 °F - 66.9 °F 87% 30.01 in 9.0 mi Variable 3.5 mph - N/A   Overcast
4:54 AM 71.1 °F - 66.9 °F 87% 30.00 in 9.0 mi South 3.5 mph - N/A   Mostly Cloudy
5:15 AM 71.1 °F - 66.9 °F 87% 30.00 in 9.0 mi SSE 4.6 mph - N/A   Mostly Cloudy
5:54 AM 72.0 °F - 66.9 °F 84% 30.00 in 9.0 mi Variable 5.8 mph - N/A   Mostly Cloudy
6:02 AM 72.0 °F - 66.9 °F 84% 30.00 in 10.0 mi Variable 3.5 mph - N/A   Mostly Cloudy
6:13 AM 72.0 °F - 66.9 °F 84% 30.00 in 10.0 mi SSW 8.1 mph - N/A   Mostly Cloudy
6:54 AM 72.0 °F - 66.9 °F 84% 30.01 in 8.0 mi SSW 9.2 mph - N/A   Overcast
7:54 AM 73.0 °F - 68.0 °F 84% 30.00 in 7.0 mi SSW 8.1 mph - N/A   Mostly Cloudy
8:41 AM 75.0 °F - 66.9 °F 76% 30.00 in 10.0 mi SW 6.9 mph - N/A   Mostly Cloudy
8:54 AM 75.0 °F - 68.0 °F 79% 30.00 in 10.0 mi SW 10.4 mph - N/A   Mostly Cloudy
9:54 AM 77.0 °F - 69.1 °F 76% 29.98 in 10.0 mi SSW 11.5 mph - N/A   Overcast
10:49 AM 80.6 °F 83.9 °F 69.8 °F 70% 29.96 in 10.0 mi SW 16.1 mph 24.2 mph N/A   Mostly Cloudy
10:54 AM 81.0 °F 84.4 °F 70.0 °F 69% 29.96 in 10.0 mi SW 10.4 mph 24.2 mph N/A   Mostly Cloudy
11:28 AM 82.9 °F 87.5 °F 71.1 °F 67% 29.96 in 10.0 mi SSW 15.0 mph 19.6 mph N/A   Scattered Clouds
11:54 AM 84.0 °F 88.4 °F 70.0 °F 63% 29.94 in 10.0 mi SW 12.7 mph 20.7 mph N/A   Partly Cloudy
12:54 PM 88.0 °F 92.9 °F 70.0 °F 55% 29.91 in 10.0 mi WSW 11.5 mph - N/A   Scattered Clouds
1:54 PM 91.0 °F 95.2 °F 68.0 °F 47% 29.89 in 10.0 mi WSW 16.1 mph 23.0 mph N/A   Scattered Clouds
2:54 PM 91.0 °F 94.3 °F 66.9 °F 45% 29.88 in 10.0 mi WSW 15.0 mph 23.0 mph N/A   Mostly Cloudy
3:54 PM 91.9 °F 95.9 °F 68.0 °F 45% 29.87 in 10.0 mi West 15.0 mph 20.7 mph N/A   Scattered Clouds
4:54 PM 91.0 °F 95.6 °F 69.1 °F 48% 29.87 in 10.0 mi WSW 9.2 mph - N/A   Partly Cloudy
5:54 PM 89.1 °F 93.7 °F 69.1 °F 52% 29.87 in 10.0 mi WSW 8.1 mph - N/A   Partly Cloudy
6:54 PM 86.0 °F 90.1 °F 69.1 °F 57% 29.89 in 10.0 mi WSW 12.7 mph 23.0 mph N/A   Mostly Cloudy
7:54 PM 80.1 °F 83.2 °F 70.0 °F 71% 29.91 in 10.0 mi Calm Calm - N/A   Clear
8:54 PM 81.0 °F 84.4 °F 70.0 °F 69% 29.94 in 10.0 mi SSW 3.5 mph - N/A   Clear
9:54 PM 79.0 °F - 70.0 °F 74% 29.95 in 10.0 mi Calm Calm - N/A   Clear
10:54 PM 77.0 °F - 68.0 °F 74% 29.96 in 10.0 mi Calm Calm - N/A   Clear
11:54 PM 79.0 °F - 63.0 °F 58% 29.99 in 10.0 mi North 15.0 mph - N/A   Scattered Clouds